This is the latest recevied weather packets stored in our database for station/object KM4NDN. If no packets are shown the sender has not sent any weather packets the latest 10 day(s).
| Time | Temp. | Humidity | Pressure | Rain* | Wind** | Luminosity | Snow |
|---|---|---|---|---|---|---|---|
| 1777943948 | 20.56° C | 47% | 1001 hPa | 0 mm | - | 0 W/m² | - |
| 1777943645 | 20.56° C | 48% | 1001.1 hPa | 0 mm | - | 0 W/m² | - |
| 1777943341 | 21.11° C | 47% | 1001.3 hPa | 0 mm | - | 0 W/m² | - |
| 1777943037 | 21.11° C | 47% | 1001 hPa | 0 mm | - | 0 W/m² | - |
| 1777942733 | 21.11° C | 47% | 1001.1 hPa | 0 mm | - | 0 W/m² | - |
| 1777942430 | 21.11° C | 47% | 1000.8 hPa | 0 mm | - | 0 W/m² | - |
| 1777942128 | 21.11° C | 47% | 1000.9 hPa | 0 mm | - | 0 W/m² | - |
| 1777941824 | 21.11° C | 47% | 1001 hPa | 0 mm | - | 0 W/m² | - |
| 1777941521 | 21.67° C | 46% | 1000.8 hPa | 0 mm | - | 1 W/m² | - |
| 1777941218 | 21.67° C | 45% | 1000.8 hPa | 0 mm | - | 2 W/m² | - |
| 1777940914 | 21.67° C | 44% | 1000.8 hPa | 0 mm | - | 4 W/m² | - |
| 1777940611 | 22.22° C | 43% | 1000.7 hPa | 0 mm | - | 6 W/m² | - |
| 1777940310 | 22.22° C | 43% | 1000.6 hPa | 0 mm | - | 10 W/m² | - |
| 1777940006 | 22.22° C | 43% | 1000.8 hPa | 0 mm | - | 15 W/m² | - |
| 1777939704 | 22.22° C | 43% | 1000.4 hPa | 0 mm | - | 18 W/m² | - |
| 1777939401 | 22.22° C | 44% | 1000.6 hPa | 0 mm | - | 20 W/m² | - |
| 1777939098 | 22.22° C | 43% | 1000.3 hPa | 0 mm | - | 23 W/m² | - |
| 1777938795 | 22.22° C | 43% | 1000.6 hPa | 0 mm | - | 25 W/m² | - |
| 1777938491 | 22.22° C | 44% | 1000.5 hPa | 0 mm | - | 27 W/m² | - |
| 1777938189 | 22.78° C | 44% | 1000.5 hPa | 0 mm | - | 27 W/m² | - |
| 1777937885 | 22.78° C | 44% | 1000.4 hPa | 0 mm | - | 30 W/m² | - |
| 1777937581 | 22.78° C | 44% | 1000.3 hPa | 0 mm | - | 32 W/m² | - |
| 1777937278 | 22.78° C | 43% | 1000.5 hPa | 0 mm | - | 38 W/m² | - |
| 1777936975 | 23.33° C | 42% | 1000.4 hPa | 0 mm | - | 47 W/m² | - |
| 1777936672 | 23.33° C | 42% | 1000.2 hPa | 0 mm | - | 56 W/m² | - |
* Rain latest hour (hover to see other rain measurements)
** Current wind speed in m/s (hover to see current wind gust speed)